Skip Page Navigation
NASA JPL Caltech
NASA Logo - Jet Propulsion Laboratory + View the NASA Portal
+ Center for Near-Earth Object Studies
JPL Home Earth Solar System Stars & Galaxies Technology
JPL Solar System Dynamics
BODIES ORBITS EPHEMERIDES TOOLS PHYSICAL DATA DISCOVERY FAQ SITE MAP
JPL Small-Body Database Browser
Search: [ help ]  
52504 (1996 FQ2)
Classification: Main-belt Asteroid          SPK-ID: 2052504
Ephemeris | Orbit Diagram | Orbital Elements | Mission Design | Physical Parameters | Discovery Circumstances ]

[ show orbit diagram ]
Orbital Elements at Epoch 2459200.5 (2020-Dec-17.0) TDB
Reference: JPL 23 (heliocentric ecliptic J2000)
 Element Value Uncertainty (1-sigma)   Units 
e .1291624993897078 4.6254e-08  
a 2.435567582793752 1.0487e-08 au
q 2.120983586367562 1.0875e-07 au
i .6912097623559068 4.0653e-06 deg
node 326.6151260965776 0.00029526 deg
peri 207.3845787266568 0.0002955 deg
M 184.3156702816326 1.2409e-05 deg
tp 2459878.031091676203
(2022-Oct-25.53109168)
4.9471e-05 TDB
period 1388.349168047244
3.80
8.9669e-06
2.455e-08
d
yr
n .2593007640191488 1.6747e-09 deg/d
Q 2.750151579219942 1.1842e-08 au
  Orbit Determination Parameters
   # obs. used (total)      751  
   data-arc span      10990 days (30.09 yr)  
   first obs. used      1990-10-13  
   last obs. used      2020-11-14  
   planetary ephem.      DE441  
   SB-pert. ephem.      SB441-N16  
   condition code      0  
   norm. resid. RMS      .52762  
   source      ORB  
   producer      Otto Matic  
   solution date      2021-Apr-13 10:45:50  

Additional Information
 Earth MOID = 1.12548 au 
 Jupiter MOID = 2.21391 au 
 T_jup = 3.493 
[ show covariance matrix ]

Ephemeris | Orbit Diagram | Orbital Elements | Mission Design | Physical Parameters | Discovery Circumstances ]

Physical Parameter Table
Parameter Symbol Value Units Sigma Reference Notes
absolute magnitude H 16.35   n/a E2021B10  

52504 (1996 FQ2)          Discovered 1996-Mar-19 by NEAT at Haleakala
Reference: 20030216/Numbers.arcLast Updated: 2004-04-19

Alternate Designations
 1996 FQ2 = 2000 GU77 
Ephemeris | Orbit Diagram | Orbital Elements | Mission Design | Physical Parameters | Discovery Circumstances ]
ABOUT SSD CREDITS/AWARDS PRIVACY/COPYRIGHT GLOSSARY LINKS
FirstGov 2021-Jun-15 11:35 UT
(server date/time)  
NASA Home Page
Site Manager:   Ryan S. Park
Webmaster  Alan B. Chamberlin